Tracking 28081 objects as of 26-Sep-2023
HD Live streaming from Space Station
objects crossing your sky now

COSMOS 1927

Track COSMOS 1927 now!
10-day predictions
COSMOS 1927 is classified as:


NORAD ID: 18940
Int'l Code: 1988-016D
Perigee: 1,461.4 km
Apogee: 1,474.4 km
Inclination: 74.0 °
Period: 115.1 minutes
Semi major axis: 7838 km
RCS: 0.7207 m2 (medium)
Launch date: March 11, 1988
Source: Commonwealth of Independent States (former USSR) (CIS)
Launch site: PLESETSK MISSILE AND SPACE COMPLEX (PKMTR)
Your satellite tracking list
Your tracking list is empty




NASA's NSSDC Master Catalog

Two Line Element Set (TLE):
1 18940U 88016D   23268.86740726 -.00000013  00000-0  20519-4 0  9992
2 18940  74.0058 158.4617 0008241 285.5610 148.2532 12.50895009623063
Source of the keplerian elements: AFSPC